QPF
0.00 0.00 0.00 0.00 0.00 0.00 0.00 0.00 0.05 0.05 0.08 0.09 0.04 0.02 0.01 0.00 0.00 0.00 0.00 0.00 0.00 0.00 0.00 0.00 0.00 0.00 0.00 0.00 0.00 0.00 0.00 0.00 0.00 0.00 0.00 0.01 0.01 0.01 0.02 0.02 0.03 0.05 0.06 0.07
0.00 0.00 0.01 0.00 0.00 0.00 0.00 0.00 0.01 0.02 0.05 0.02 0.01 0.00 0.00 0.00 0.00 0.00 0.00 0.00 0.00 0.00 0.00 0.00 0.00 0.00 0.00 0.00 0.00 0.00 0.01 0.01 0.01 0.01 0.01 0.00 0.00 0.01 0.01 0.02 0.03 0.05 0.05 0.06
0.00 0.01 0.01 0.04 0.03 0.01 0.00 0.00 0.00 0.01 0.02 0.00 0.00 0.00 0.00 0.00 0.00 0.00 0.00 0.00 0.00 0.00 0.00 0.00 0.00 0.00 0.00 0.00 0.00 0.01 0.01 0.01 0.01 0.01 0.01 0.01 0.01 0.01 0.02 0.03 0.04 0.05 0.06 0.07
0.00 0.01 0.04 0.05 0.01 0.00 0.00 0.00 0.00 0.00 0.00 0.00 0.00 0.00 0.00 0.00 0.00 0.00 0.00 0.00 0.00 0.00 0.00 0.00 0.00 0.00 0.00 0.00 0.00 0.00 0.00 0.00 0.01 0.01 0.01 0.01 0.01 0.02 0.03 0.04 0.04 0.05 0.06 0.08
0.00 0.01 0.04 0.02 0.00 0.00 0.00 0.00 0.00 0.00 0.00 0.00 0.00 0.00 0.00 0.00 0.00 0.00 0.00 0.00 0.00 0.00 0.00 0.00 0.00 0.00 0.00 0.00 0.00 0.00 0.01 0.01 0.01 0.01 0.01 0.02 0.03 0.04 0.04 0.05 0.04 0.04 0.05 0.08
0.00 0.01 0.03 0.02 0.00 0.00 0.00 0.01 0.00 0.00 0.00 0.00 0.00 0.00 0.00 0.00 0.00 0.00 0.00 0.00 0.00 0.00 0.00 0.00 0.00 0.00 0.00 0.00 0.01 0.01 0.01 0.01 0.01 0.02 0.03 0.04 0.05 0.05 0.06 0.07 0.05 0.04 0.05 0.07
0.00 0.00 0.01 0.00 0.00 0.00 0.00 0.00 0.00 0.00 0.00 0.00 0.00 0.00 0.00 0.00 0.00 0.00 0.00 0.00 0.00 0.00 0.00 0.00 0.00 0.00 0.01 0.01 0.01 0.01 0.01 0.01 0.02 0.03 0.05 0.05 0.06 0.07 0.08 0.07 0.06 0.06 0.06 0.08
0.00 0.00 0.01 0.00 0.00 0.00 0.00 0.00 0.00 0.00 0.00 0.00 0.00 0.00 0.00 0.00 0.00 0.00 0.00 0.00 0.00 0.00 0.00 0.00 0.00 0.01 0.02 0.02 0.02 0.02 0.02 0.03 0.03 0.04 0.04 0.02 0.06 0.08 0.08 0.08 0.08 0.07 0.08 0.10
0.00 0.00 0.00 0.00 0.00 0.00 0.00 0.00 0.00 0.00 0.00 0.00 0.00 0.00 0.00 0.00 0.00 0.00 0.00 0.00 0.00 0.00 0.00 0.00 0.00 0.01 0.02 0.01 0.02 0.02 0.03 0.03 0.03 0.03 0.04 0.05 0.06 0.07 0.08 0.09 0.09 0.08 0.11 0.14
0.00 0.00 0.00 0.00 0.00 0.00 0.00 0.00 0.00 0.00 0.00 0.00 0.00 0.00 0.00 0.00 0.00 0.00 0.00 0.00 0.00 0.00 0.00 0.00 0.00 0.01 0.01 0.01 0.02 0.04 0.04 0.04 0.05 0.05 0.05 0.05 0.07 0.07 0.08 0.08 0.10 0.12 0.13 0.16
0.00 0.00 0.00 0.00 0.00 0.00 0.00 0.00 0.00 0.00 0.00 0.00 0.00 0.00 0.00 0.00 0.00 0.00 0.00 0.00 0.00 0.00 0.00 0.00 0.01 0.01 0.01 0.02 0.05 0.06 0.05 0.05 0.05 0.05 0.05 0.05 0.06 0.06 0.07 0.08 0.08 0.08 0.10 0.13
0.00 0.00 0.00 0.00 0.00 0.00 0.00 0.00 0.00 0.00 0.00 0.00 0.00 0.00 0.00 0.00 0.00 0.00 0.00 0.00 0.00 0.01 0.01 0.01 0.01 0.02 0.02 0.04 0.06 0.07 0.06 0.06 0.06 0.05 0.05 0.06 0.06 0.06 0.04 0.03 0.01 0.01 0.03 0.06
0.00 0.00 0.00 0.00 0.00 0.00 0.00 0.00 0.00 0.00 0.00 0.00 0.00 0.00 0.00 0.00 0.00 0.00 0.01 0.01 0.02 0.02 0.02 0.02 0.03 0.03 0.04 0.05 0.06 0.07 0.07 0.07 0.07 0.06 0.06 0.07 0.07 0.07 0.07 0.05 0.03 0.01 0.02 0.04
0.00 0.00 0.00 0.00 0.00 0.00 0.00 0.00 0.00 0.00 0.00 0.00 0.00 0.00 0.00 0.00 0.01 0.01 0.02 0.02 0.03 0.03 0.03 0.03 0.04 0.04 0.05 0.06 0.06 0.07 0.07 0.08 0.08 0.09 0.09 0.08 0.08 0.08 0.08 0.08 0.08 0.07 0.04 0.04
0.00 0.00 0.00 0.00 0.00 0.00 0.00 0.00 0.00 0.00 0.00 0.00 0.00 0.00 0.00 0.01 0.02 0.02 0.03 0.04 0.04 0.04 0.03 0.05 0.06 0.05 0.04 0.06 0.07 0.07 0.07 0.08 0.08 0.09 0.09 0.09 0.09 0.09 0.08 0.08 0.09 0.09 0.08 0.08
0.00 0.00 0.00 0.00 0.00 0.00 0.00 0.00 0.00 0.00 0.00 0.00 0.00 0.00 0.01 0.01 0.02 0.03 0.03 0.05 0.06 0.06 0.06 0.09 0.08 0.06 0.06 0.07 0.08 0.08 0.08 0.07 0.07 0.09 0.09 0.09 0.09 0.09 0.09 0.08 0.09 0.10 0.09 0.10
0.00 0.00 0.00 0.00 0.00 0.00 0.00 0.00 0.00 0.00 0.00 0.00 0.00 0.01 0.01 0.02 0.03 0.04 0.04 0.05 0.06 0.06 0.08 0.11 0.10 0.08 0.07 0.08 0.08 0.09 0.09 0.07 0.07 0.09 0.10 0.10 0.10 0.09 0.09 0.08 0.09 0.10 0.09 0.08
0.00 0.00 0.00 0.00 0.00 0.00 0.00 0.00 0.00 0.00 0.00 0.01 0.01 0.01 0.02 0.04 0.06 0.07 0.07 0.07 0.06 0.06 0.09 0.11 0.10 0.08 0.07 0.07 0.07 0.07 0.08 0.08 0.09 0.10 0.10 0.10 0.09 0.09 0.09 0.09 0.10 0.10 0.09 0.07
0.00 0.00 0.00 0.00 0.00 0.00 0.00 0.00 0.00 0.00 0.00 0.01 0.01 0.01 0.02 0.05 0.06 0.07 0.07 0.08 0.09 0.11 0.11 0.11 0.09 0.08 0.08 0.07 0.06 0.06 0.07 0.08 0.09 0.09 0.10 0.09 0.08 0.09 0.09 0.09 0.09 0.10 0.09 0.08
0.00 0.00 0.00 0.00 0.00 0.00 0.00 0.00 0.00 0.00 0.01 0.01 0.01 0.02 0.03 0.04 0.06 0.06 0.07 0.08 0.11 0.14 0.13 0.11 0.09 0.08 0.07 0.06 0.05 0.06 0.07 0.09 0.10 0.11 0.13 0.12 0.11 0.10 0.10 0.09 0.09 0.09 0.07 0.07
0.00 0.00 0.00 0.00 0.00 0.00 0.00 0.00 0.00 0.00 0.01 0.01 0.01 0.02 0.04 0.04 0.05 0.06 0.08 0.09 0.09 0.10 0.09 0.09 0.09 0.08 0.06 0.05 0.04 0.06 0.08 0.11 0.12 0.13 0.15 0.15 0.13 0.12 0.10 0.08 0.07 0.06 0.06 0.05
0.00 0.00 0.00 0.00 0.00 0.00 0.00 0.00 0.00 0.00 0.01 0.01 0.01 0.03 0.04 0.04 0.05 0.06 0.07 0.10 0.10 0.09 0.08 0.09 0.08 0.06 0.06 0.07 0.07 0.09 0.11 0.12 0.12 0.12 0.13 0.13 0.13 0.12 0.09 0.06 0.05 0.05 0.05 0.05
0.00 0.00 0.00 0.00 0.00 0.00 0.00 0.00 0.00 0.00 0.01 0.01 0.01 0.03 0.05 0.05 0.07 0.09 0.09 0.08 0.08 0.08 0.09 0.09 0.05 0.04 0.06 0.07 0.08 0.09 0.09 0.10 0.10 0.10 0.10 0.11 0.11 0.09 0.07 0.06 0.05 0.05 0.05 0.06
0.00 0.00 0.00 0.00 0.00 0.00 0.00 0.00 0.00 0.00 0.00 0.00 0.00 0.02 0.05 0.06 0.06 0.07 0.08 0.08 0.08 0.07 0.09 0.08 0.04 0.04 0.05 0.08 0.09 0.08 0.08 0.09 0.09 0.11 0.12 0.12 0.11 0.09 0.07 0.07 0.07 0.07 0.07 0.06
0.00 0.00 0.00 0.00 0.00 0.00 0.00 0.00 0.00 0.00 0.00 0.00 0.00 0.01 0.03 0.05 0.06 0.07 0.07 0.07 0.07 0.06 0.07 0.07 0.05 0.05 0.08 0.11 0.10 0.09 0.09 0.10 0.10 0.13 0.15 0.14 0.12 0.09 0.08 0.08 0.08 0.08 0.07 0.05
0.00 0.00 0.00 0.00 0.00 0.00 0.00 0.00 0.00 0.00 0.00 0.00 0.00 0.01 0.02 0.03 0.04 0.04 0.05 0.05 0.05 0.05 0.05 0.05 0.06 0.07 0.09 0.11 0.11 0.12 0.12 0.12 0.12 0.14 0.14 0.13 0.12 0.10 0.10 0.09 0.08 0.07 0.05 0.03
0.00 0.00 0.00 0.00 0.00 0.00 0.00 0.00 0.00 0.00 0.00 0.00 0.00 0.01 0.01 0.02 0.03 0.03 0.03 0.04 0.04 0.04 0.04 0.05 0.07 0.09 0.11 0.12 0.12 0.14 0.16 0.17 0.15 0.14 0.13 0.14 0.13 0.11 0.09 0.07 0.06 0.05 0.03 0.02
MSLP
1009.47 1009.34 1009.27 1009.30 1009.46 1009.76 1010.16 1010.63 1011.10 1011.52 1011.85 1012.05 1012.12 1012.07 1011.94 1011.77 1011.60 1011.46 1011.36 1011.32 1011.31 1011.32 1011.33 1011.31 1011.25 1011.14 1010.99 1010.81 1010.61 1010.41 1010.21 1010.03 1009.86 1009.70 1009.54 1009.37 1009.19 1008.97 1008.72 1008.44 1008.12 1007.76 1007.37 1006.96
1010.10 1010.05 1010.01 1010.03 1010.14 1010.35 1010.66 1011.02 1011.41 1011.76 1012.04 1012.21 1012.27 1012.21 1012.08 1011.89 1011.68 1011.48 1011.31 1011.18 1011.08 1011.01 1010.94 1010.85 1010.73 1010.58 1010.39 1010.16 1009.92 1009.68 1009.45 1009.24 1009.06 1008.91 1008.77 1008.64 1008.50 1008.34 1008.15 1007.91 1007.62 1007.29 1006.91 1006.51
1010.76 1010.81 1010.83 1010.88 1010.97 1011.12 1011.34 1011.60 1011.87 1012.11 1012.30 1012.39 1012.39 1012.28 1012.10 1011.86 1011.60 1011.34 1011.10 1010.89 1010.71 1010.56 1010.42 1010.27 1010.10 1009.89 1009.66 1009.39 1009.12 1008.85 1008.59 1008.37 1008.18 1008.04 1007.93 1007.84 1007.75 1007.64 1007.50 1007.30 1007.05 1006.74 1006.38 1005.99
1011.38 1011.54 1011.65 1011.74 1011.84 1011.95 1012.09 1012.24 1012.38 1012.49 1012.55 1012.53 1012.42 1012.23 1011.98 1011.67 1011.34 1011.01 1010.71 1010.43 1010.19 1009.97 1009.76 1009.55 1009.33 1009.09 1008.81 1008.52 1008.22 1007.92 1007.66 1007.43 1007.25 1007.12 1007.04 1006.99 1006.94 1006.88 1006.78 1006.62 1006.40 1006.12 1005.78 1005.40
1011.92 1012.17 1012.36 1012.50 1012.61 1012.69 1012.75 1012.80 1012.82 1012.79 1012.70 1012.55 1012.32 1012.03 1011.68 1011.30 1010.90 1010.51 1010.15 1009.81 1009.52 1009.24 1008.99 1008.74 1008.47 1008.19 1007.89 1007.58 1007.26 1006.96 1006.70 1006.48 1006.31 1006.20 1006.15 1006.12 1006.11 1006.08 1006.01 1005.89 1005.69 1005.43 1005.11 1004.76
1012.32 1012.63 1012.88 1013.06 1013.17 1013.22 1013.22 1013.17 1013.06 1012.90 1012.68 1012.39 1012.04 1011.65 1011.21 1010.76 1010.31 1009.87 1009.46 1009.09 1008.75 1008.44 1008.14 1007.86 1007.57 1007.27 1006.95 1006.63 1006.32 1006.03 1005.77 1005.57 1005.42 1005.33 1005.29 1005.29 1005.29 1005.28 1005.23 1005.13 1004.95 1004.72 1004.43 1004.11
1012.57 1012.90 1013.17 1013.35 1013.46 1013.47 1013.41 1013.27 1013.05 1012.77 1012.43 1012.03 1011.58 1011.10 1010.61 1010.10 1009.61 1009.14 1008.70 1008.30 1007.94 1007.60 1007.28 1006.98 1006.67 1006.37 1006.06 1005.75 1005.45 1005.18 1004.94 1004.76 1004.63 1004.55 1004.52 1004.52 1004.53 1004.52 1004.47 1004.38 1004.22 1004.01 1003.75 1003.48
1012.66 1012.98 1013.23 1013.39 1013.46 1013.43 1013.30 1013.08 1012.77 1012.40 1011.96 1011.48 1010.97 1010.43 1009.90 1009.37 1008.86 1008.38 1007.93 1007.52 1007.15 1006.80 1006.47 1006.16 1005.85 1005.55 1005.26 1004.97 1004.70 1004.46 1004.25 1004.09 1003.98 1003.90 1003.87 1003.86 1003.85 1003.82 1003.77 1003.67 1003.53 1003.34 1003.13 1002.91
1012.63 1012.89 1013.09 1013.20 1013.22 1013.13 1012.93 1012.64 1012.26 1011.82 1011.32 1010.79 1010.24 1009.69 1009.15 1008.63 1008.13 1007.66 1007.22 1006.81 1006.44 1006.09 1005.76 1005.44 1005.15 1004.86 1004.59 1004.33 1004.10 1003.89 1003.71 1003.57 1003.47 1003.39 1003.34 1003.30 1003.26 1003.21 1003.13 1003.03 1002.89 1002.74 1002.58 1002.42
1012.50 1012.69 1012.82 1012.86 1012.81 1012.65 1012.39 1012.03 1011.60 1011.11 1010.58 1010.04 1009.49 1008.95 1008.43 1007.94 1007.47 1007.02 1006.60 1006.21 1005.84 1005.49 1005.16 1004.85 1004.56 1004.30 1004.05 1003.83 1003.63 1003.45 1003.30 1003.17 1003.07 1002.98 1002.90 1002.82 1002.74 1002.65 1002.55 1002.43 1002.31 1002.19 1002.08 1002.00
1012.32 1012.43 1012.48 1012.45 1012.32 1012.09 1011.77 1011.36 1010.89 1010.38 1009.85 1009.31 1008.79 1008.29 1007.81 1007.36 1006.93 1006.52 1006.12 1005.74 1005.37 1005.02 1004.69 1004.37 1004.09 1003.83 1003.60 1003.40 1003.23 1003.08 1002.94 1002.82 1002.71 1002.60 1002.48 1002.36 1002.24 1002.11 1001.99 1001.87 1001.76 1001.68 1001.63 1001.63
1012.13 1012.18 1012.16 1012.06 1011.86 1011.56 1011.19 1010.74 1010.24 1009.73 1009.21 1008.70 1008.22 1007.76 1007.34 1006.94 1006.55 1006.16 1005.78 1005.40 1005.02 1004.65 1004.30 1003.96 1003.66 1003.40 1003.17 1002.98 1002.81 1002.68 1002.55 1002.43 1002.30 1002.16 1002.01 1001.86 1001.70 1001.54 1001.40 1001.28 1001.20 1001.17 1001.18 1001.25
1011.96 1011.96 1011.89 1011.73 1011.47 1011.13 1010.71 1010.24 1009.73 1009.22 1008.73 1008.26 1007.82 1007.42 1007.04 1006.68 1006.32 1005.95 1005.57 1005.17 1004.76 1004.35 1003.94 1003.57 1003.23 1002.93 1002.68 1002.47 1002.30 1002.16 1002.02 1001.89 1001.75 1001.59 1001.42 1001.24 1001.06 1000.89 1000.75 1000.66 1000.61 1000.63 1000.71 1000.85
1011.83 1011.80 1011.70 1011.50 1011.20 1010.82 1010.38 1009.90 1009.39 1008.90 1008.43 1008.00 1007.61 1007.25 1006.91 1006.58 1006.23 1005.85 1005.44 1005.00 1004.53 1004.05 1003.58 1003.13 1002.73 1002.37 1002.07 1001.82 1001.62 1001.45 1001.30 1001.16 1001.00 1000.83 1000.65 1000.47 1000.29 1000.14 1000.03 999.97 999.98 1000.06 1000.21 1000.42
1011.74 1011.70 1011.58 1011.36 1011.04 1010.64 1010.19 1009.71 1009.22 1008.75 1008.31 1007.92 1007.56 1007.24 1006.92 1006.59 1006.23 1005.82 1005.37 1004.86 1004.31 1003.74 1003.17 1002.62 1002.12 1001.68 1001.31 1001.00 1000.75 1000.54 1000.37 1000.20 1000.04 999.87 999.70 999.54 999.40 999.30 999.24 999.25 999.33 999.49 999.71 999.98
1011.68 1011.65 1011.52 1011.29 1010.96 1010.57 1010.12 1009.64 1009.17 1008.72 1008.32 1007.95 1007.62 1007.32 1007.00 1006.66 1006.27 1005.82 1005.29 1004.70 1004.05 1003.37 1002.69 1002.03 1001.42 1000.87 1000.41 1000.02 999.71 999.46 999.25 999.07 998.90 998.76 998.62 998.51 998.42 998.39 998.42 998.52 998.69 998.92 999.22 999.56
1011.65 1011.62 1011.49 1011.26 1010.94 1010.54 1010.10 1009.65 1009.20 1008.77 1008.39 1008.05 1007.74 1007.44 1007.11 1006.75 1006.32 1005.80 1005.20 1004.51 1003.75 1002.95 1002.15 1001.37 1000.64 999.99 999.43 998.96 998.57 998.27 998.02 997.83 997.68 997.56 997.47 997.42 997.42 997.48 997.61 997.81 998.08 998.41 998.79 999.18
1011.64 1011.61 1011.48 1011.25 1010.93 1010.54 1010.12 1009.68 1009.25 1008.85 1008.49 1008.16 1007.85 1007.54 1007.20 1006.80 1006.32 1005.74 1005.05 1004.27 1003.41 1002.51 1001.59 1000.70 999.86 999.10 998.44 997.89 997.44 997.08 996.81 996.60 996.46 996.37 996.34 996.36 996.45 996.61 996.85 997.16 997.53 997.95 998.41 998.86
1011.64 1011.60 1011.46 1011.23 1010.92 1010.54 1010.12 1009.70 1009.29 1008.91 1008.56 1008.24 1007.93 1007.61 1007.24 1006.80 1006.27 1005.62 1004.87 1004.01 1003.06 1002.07 1001.06 1000.07 999.14 998.29 997.55 996.92 996.41 996.01 995.70 995.49 995.36 995.30 995.31 995.41 995.58 995.83 996.17 996.57 997.04 997.55 998.07 998.59
1011.63 1011.58 1011.44 1011.20 1010.89 1010.52 1010.11 1009.70 1009.31 1008.94 1008.60 1008.28 1007.96 1007.62 1007.23 1006.75 1006.17 1005.48 1004.67 1003.74 1002.74 1001.68 1000.60 999.55 998.55 997.64 996.83 996.15 995.58 995.14 994.81 994.58 994.45 994.41 994.46 994.60 994.84 995.16 995.57 996.06 996.60 997.17 997.75 998.31
1011.61 1011.55 1011.40 1011.16 1010.85 1010.48 1010.09 1009.69 1009.31 1008.95 1008.62 1008.30 1007.97 1007.61 1007.19 1006.68 1006.07 1005.33 1004.48 1003.52 1002.47 1001.37 1000.26 999.17 998.13 997.18 996.34 995.61 995.01 994.53 994.17 993.92 993.78 993.74 993.81 993.97 994.24 994.61 995.06 995.59 996.18 996.80 997.42 998.01
1011.57 1011.50 1011.35 1011.10 1010.80 1010.44 1010.06 1009.68 1009.32 1008.97 1008.64 1008.32 1007.98 1007.61 1007.16 1006.63 1005.98 1005.22 1004.34 1003.36 1002.30 1001.19 1000.06 998.96 997.91 996.95 996.08 995.34 994.71 994.21 993.82 993.55 993.39 993.33 993.38 993.55 993.81 994.18 994.65 995.19 995.79 996.42 997.06 997.66
1011.49 1011.42 1011.27 1011.04 1010.74 1010.41 1010.05 1009.69 1009.35 1009.02 1008.70 1008.38 1008.04 1007.65 1007.18 1006.63 1005.96 1005.18 1004.29 1003.30 1002.24 1001.13 1000.01 998.92 997.89 996.93 996.07 995.32 994.69 994.16 993.76 993.46 993.27 993.18 993.21 993.34 993.58 993.92 994.36 994.88 995.46 996.08 996.71 997.32
1011.37 1011.31 1011.17 1010.95 1010.68 1010.38 1010.05 1009.73 1009.41 1009.11 1008.81 1008.50 1008.16 1007.76 1007.28 1006.71 1006.03 1005.24 1004.34 1003.35 1002.30 1001.21 1000.12 999.05 998.04 997.11 996.27 995.54 994.91 994.39 993.97 993.65 993.43 993.32 993.30 993.39 993.58 993.88 994.27 994.74 995.28 995.86 996.46 997.05
1011.20 1011.16 1011.04 1010.86 1010.62 1010.36 1010.08 1009.80 1009.53 1009.26 1008.99 1008.69 1008.36 1007.96 1007.48 1006.89 1006.20 1005.40 1004.50 1003.52 1002.49 1001.42 1000.37 999.34 998.37 997.48 996.68 995.98 995.37 994.87 994.45 994.13 993.89 993.75 993.70 993.74 993.88 994.11 994.44 994.85 995.33 995.86 996.42 996.98
1011.00 1010.99 1010.90 1010.75 1010.57 1010.35 1010.13 1009.91 1009.69 1009.47 1009.23 1008.97 1008.65 1008.26 1007.77 1007.18 1006.49 1005.68 1004.79 1003.82 1002.81 1001.78 1000.76 999.79 998.87 998.03 997.29 996.64 996.07 995.60 995.21 994.90 994.67 994.51 994.44 994.44 994.54 994.71 994.98 995.33 995.74 996.21 996.71 997.23
1010.79 1010.81 1010.76 1010.66 1010.52 1010.37 1010.21 1010.05 1009.90 1009.73 1009.54 1009.31 1009.02 1008.64 1008.17 1007.58 1006.89 1006.10 1005.21 1004.27 1003.28 1002.29 1001.33 1000.41 999.56 998.79 998.11 997.53 997.03 996.61 996.27 996.00 995.79 995.64 995.56 995.54 995.60 995.74 995.95 996.23 996.58 996.99 997.43 997.90
Thickness
5764 5775 5778 5772 5768 5763 5750 5739 5723 5717 5706 5697 5694 5688 5684 5679 5672 5665 5660 5654 5648 5640 5633 5627 5622 5618 5613 5609 5605 5602 5598 5596 5594 5594 5593 5594 5595 5597 5600 5604 5608 5613 5618 5625
5755 5769 5769 5760 5755 5748 5739 5730 5720 5712 5700 5699 5693 5685 5675 5668 5660 5653 5648 5642 5634 5626 5619 5612 5606 5601 5596 5591 5586 5582 5578 5576 5575 5573 5573 5573 5574 5576 5579 5583 5586 5591 5597 5604
5741 5760 5758 5732 5728 5726 5720 5718 5707 5694 5691 5690 5678 5669 5662 5656 5648 5642 5634 5624 5616 5608 5601 5594 5588 5582 5576 5572 5568 5564 5560 5558 5556 5555 5555 5555 5555 5557 5559 5561 5564 5569 5575 5583
5740 5741 5715 5713 5730 5721 5709 5707 5703 5695 5684 5674 5665 5661 5655 5648 5638 5626 5617 5608 5601 5592 5585 5578 5572 5567 5561 5557 5553 5549 5547 5545 5543 5542 5542 5542 5541 5542 5542 5543 5545 5550 5556 5564
5729 5723 5713 5711 5713 5705 5693 5687 5687 5675 5667 5662 5656 5647 5645 5640 5625 5613 5604 5595 5587 5579 5572 5565 5559 5554 5549 5545 5542 5539 5538 5538 5537 5535 5534 5533 5532 5531 5531 5531 5533 5537 5543 5549
5724 5708 5697 5695 5706 5708 5692 5676 5668 5662 5652 5645 5638 5624 5624 5620 5610 5601 5591 5581 5573 5567 5561 5555 5551 5547 5542 5539 5537 5535 5534 5534 5533 5532 5530 5528 5527 5527 5526 5525 5525 5529 5534 5539
5716 5705 5701 5700 5703 5695 5667 5658 5662 5655 5646 5636 5625 5615 5613 5608 5598 5588 5578 5570 5563 5557 5553 5548 5545 5541 5537 5535 5533 5532 5532 5531 5530 5529 5527 5527 5526 5525 5523 5522 5522 5524 5527 5532
5704 5693 5684 5698 5690 5670 5660 5662 5654 5646 5637 5627 5619 5612 5604 5594 5585 5576 5568 5562 5556 5550 5547 5544 5541 5537 5534 5532 5531 5530 5529 5528 5527 5526 5525 5526 5525 5524 5522 5520 5520 5522 5524 5529
5697 5691 5697 5695 5682 5675 5666 5654 5645 5637 5629 5619 5610 5601 5592 5584 5576 5569 5561 5556 5551 5546 5542 5539 5536 5533 5530 5529 5527 5526 5525 5524 5523 5523 5522 5522 5521 5521 5520 5519 5519 5521 5523 5526
5697 5697 5694 5686 5679 5670 5659 5647 5640 5631 5621 5611 5600 5592 5584 5577 5569 5562 5556 5550 5545 5540 5536 5533 5530 5526 5524 5523 5521 5520 5519 5518 5518 5518 5518 5518 5518 5518 5518 5518 5518 5519 5521 5523
5691 5689 5683 5678 5668 5659 5651 5643 5633 5624 5613 5603 5594 5585 5577 5569 5562 5555 5549 5543 5538 5532 5528 5525 5522 5519 5517 5515 5512 5510 5510 5510 5511 5512 5513 5513 5514 5515 5515 5515 5516 5516 5519 5520
5677 5677 5668 5663 5660 5653 5643 5633 5625 5615 5607 5598 5587 5577 5569 5561 5554 5547 5541 5535 5528 5523 5519 5516 5513 5511 5509 5506 5503 5501 5501 5502 5502 5503 5506 5508 5510 5512 5514 5513 5514 5514 5515 5516
5683 5678 5669 5662 5655 5647 5636 5628 5619 5609 5600 5591 5581 5570 5560 5552 5545 5538 5531 5525 5519 5514 5510 5507 5504 5503 5501 5499 5496 5495 5494 5494 5495 5496 5499 5501 5504 5507 5509 5511 5511 5512 5513 5515
5681 5671 5660 5654 5647 5640 5631 5622 5614 5604 5594 5583 5572 5562 5553 5544 5536 5529 5523 5518 5512 5508 5504 5501 5498 5497 5496 5494 5491 5490 5490 5490 5490 5491 5494 5497 5500 5502 5505 5507 5510 5515 5515 5514
5674 5665 5656 5650 5642 5634 5625 5617 5607 5597 5587 5576 5565 5554 5544 5536 5529 5523 5517 5512 5507 5503 5500 5497 5495 5494 5492 5490 5488 5487 5487 5486 5487 5489 5491 5494 5497 5500 5503 5506 5509 5513 5516 5516
5668 5661 5653 5643 5634 5627 5618 5609 5598 5589 5579 5567 5557 5548 5539 5531 5524 5519 5513 5508 5503 5501 5499 5496 5494 5493 5491 5489 5488 5487 5487 5487 5487 5488 5491 5494 5497 5499 5502 5505 5509 5513 5517 5519
5659 5651 5643 5635 5627 5620 5611 5602 5591 5581 5571 5561 5551 5544 5536 5528 5522 5516 5512 5507 5503 5501 5498 5496 5495 5493 5491 5490 5489 5489 5489 5489 5490 5491 5493 5496 5499 5501 5504 5508 5511 5515 5519 5521
5658 5649 5641 5630 5622 5614 5606 5597 5587 5576 5565 5556 5548 5539 5532 5525 5518 5514 5510 5508 5506 5504 5501 5498 5496 5494 5493 5493 5492 5491 5492 5493 5494 5496 5498 5501 5503 5505 5507 5511 5515 5519 5522 5522
5655 5646 5637 5628 5619 5610 5601 5592 5582 5572 5562 5552 5544 5536 5528 5522 5517 5513 5510 5508 5507 5506 5504 5502 5498 5498 5499 5499 5496 5497 5497 5499 5501 5503 5505 5506 5508 5510 5513 5517 5521 5524 5527 5530
5650 5641 5633 5625 5616 5606 5597 5588 5578 5568 5559 5551 5542 5535 5529 5523 5518 5515 5513 5511 5509 5507 5506 5505 5506 5506 5507 5506 5504 5504 5506 5507 5509 5511 5513 5515 5517 5519 5522 5526 5529 5533 5536 5538
5643 5636 5628 5620 5611 5603 5593 5584 5576 5567 5558 5550 5541 5535 5529 5524 5520 5517 5516 5516 5515 5513 5512 5512 5514 5514 5515 5513 5512 5514 5516 5517 5519 5521 5524 5527 5528 5530 5532 5535 5539 5542 5544 5547
5638 5630 5622 5615 5607 5599 5591 5583 5574 5565 5558 5549 5542 5536 5530 5526 5524 5522 5519 5518 5518 5517 5519 5523 5523 5521 5521 5521 5526 5527 5529 5530 5532 5534 5537 5540 5542 5543 5545 5547 5550 5552 5554 5557
5633 5625 5617 5611 5603 5596 5590 5583 5573 5564 5556 5548 5542 5536 5530 5526 5524 5523 5524 5524 5524 5523 5527 5530 5528 5528 5529 5535 5539 5541 5542 5543 5545 5548 5551 5554 5556 5558 5559 5560 5561 5563 5564 5567
5628 5621 5615 5609 5602 5595 5588 5581 5572 5563 5555 5548 5542 5536 5531 5529 5528 5527 5525 5527 5528 5529 5534 5535 5535 5538 5541 5547 5550 5552 5553 5555 5557 5560 5562 5565 5567 5569 5570 5571 5572 5573 5575 5577
5626 5619 5614 5606 5600 5593 5586 5578 5570 5562 5555 5548 5542 5537 5533 5529 5527 5528 5530 5532 5534 5536 5541 5543 5545 5547 5553 5556 5559 5561 5563 5564 5567 5569 5572 5575 5577 5579 5579 5580 5582 5583 5585 5586
5623 5618 5612 5604 5596 5589 5582 5574 5566 5559 5552 5546 5542 5538 5535 5532 5531 5532 5533 5536 5538 5540 5544 5547 5551 5555 5559 5563 5566 5568 5571 5574 5577 5578 5580 5582 5584 5586 5588 5589 5590 5591 5593 5594
5622 5616 5609 5601 5594 5585 5578 5570 5562 5556 5550 5542 5540 5536 5534 5533 5533 5533 5535 5538 5541 5544 5546 5550 5554 5558 5562 5566 5570 5573 5577 5580 5583 5585 5587 5589 5590 5592 5594 5595 5597 5598 5598 5599